OneWeb SL0042

operational
NORAD ID: 45441 Int'l Des: 2020-020 Owner: ONEWEB Country: UK Constellation: oneweb
LEOCIRCULARPOLARONEWEB_TYPE

About OneWeb SL0042

Description loading...

Live Position

Loading 3D Globe...

Upcoming Passes

Altitude History

Altitude vs Time

uPlot chart will show altitude changes over time

Two-Line Element Set

1 45441U 20020T 25303.77471914 -.00000058 00000-0 -19870-3 0 9998
2 45441 87.8849 66.7339 0001505 99.0476 261.0822 13.11420471272594
Epoch: Oct 30, 2025 • Age: 6 hours

Current Status

Altitude 1219.5 km
Velocity 7.25 km/s
Sub-Earth Point 8.77°N, 167.58°W
Launch Date Mar 21, 2020
Age 5.6 years
Type internet

Technical Details

Classification Payload
Mass 148.00 kg
Dry Mass 140.00 kg
Total Mass 148.00 kg
Length 1.30 m
Diameter 1.00 m
Span 5.00 m
Shape Trapezoid+2 pan
Manufacturer ONEWUS
Bus Type ARROW
Phase Status In Orbit
Owner/State ONEWEB/UK

Large Constellations

Loading constellations...